Location: Larkspur
(54.4391°N, 113.7691°W)
Time: 18:29:57
(UTC+00:00)

Oscar 19 - Pass Details

Date: 07 December 2023
Orbit: 771 x 789 km, 98.9° (Epoch: 03 March)

Event Time Altitude Azimuth Distance (km) Brightness Sun altitude
Rises 00:29:04 0° 205° (SSW) 3,236 14.7 -10.3°
Reaches altitude 10° 00:31:54 10° 221° (SW) 2,315 14.2 -10.7°
Maximum altitude 00:35:44 21° 270° (W) 1,679 13.3 -11.2°
Drops below altitude 10° 00:39:37 10° 319° (NW) 2,332 13.3 -11.7°
Sets 00:42:30 0° 336° (NNW) 3,268 13.9 -12.1°
